User: anonymous   Login
Location: Oregon Trail
(41.1872°N, 102.0741°W)
Time: 09:57:53
(UTC+00:00)
Language:

Cosmos 1408 - Orbit

View from above orbital plane
View from above orbital plane
View from above satellite
View from above satellite

Ground track
Ground track

The orbit data is extracted from the following two-line orbital elements,

1 13552U 82092A   20018.57136201 +.00000647 +00000-0 +22577-4 0  9997
2 13552 082.5666 068.6581 0016680 311.2430 048.7371 15.27575929041018
Epoch (UTC): 18 January 2020 13:42:45
Eccentricity: 0.0016680
inclination: 82.5666°
perigee height: 471 km
apogee height: 494 km
right ascension of ascending node: 68.6581°
argument of perigee: 311.2430°
revolutions per day: 15.27575929
mean anomaly at epoch: 48.7371°
orbit number at epoch: 4101

The dashed part of the orbit path shows where the satellite is in the earth's shadow,  

DLR